Regional Weather Roundup
Issued by NWS Northern Indiana

Home | Current Version | Previous Version | Text Only | Print | Product List | Glossary On
Versions: 1 2 3 4 5 6 7 8 9 10 11 12 13 14 15 16 17 18 19 20 21 22 23 24 25 26 27 28 29 30 31 32 33 34 35 36 37 38 39 40 41 42 43 44 45 46 47 48 49 50
129
ASUS43 KIWX 022110
RWRIWX

KIWX WEATHER ROUNDUP
NATIONAL WEATHER SERVICE NORTHERN INDIANA
400 PM EST FRI DEC 02 2016

NOTE: "FAIR" INDICATES FEW OR NO CLOUDS BELOW 12,000 FEET WITH NO
SIGNIFICANT WEATHER AND/OR OBSTRUCTIONS TO VISIBILITY.

* THESE STATIONS ARE NOT UNDER NWS QUALITY CONTROL. THEY ALSO MAY NOT
  REPORT WEATHER SUCH AS PRECIPITATION OR FOG.

INZ001>027-022200-
NORTHERN INDIANA

CITY           SKY/WX    TMP DP  RH WIND       PRES   REMARKS
GARY*          CLOUDY    41  32  70 W10       30.21R
VALPARAISO     CLOUDY    40  30  67 NW6       30.21R
MICHIGAN CITY* CLOUDY    37  30  75 N9        30.21R
LAPORTE*       CLOUDY    40  35  84 NW9       30.20R
KNOX*          CLOUDY    37  14  38 W8        30.20R
SOUTH BEND     CLOUDY    37  28  70 NW9       30.19R
ELKHART*         N/A     37  27  65 NW7       30.19R
GOSHEN         CLOUDY    38  27  64 NW13      30.18R
MONTICELLO*    CLOUDY    39  27  62 W5        30.22R
LOGANSPORT*    CLOUDY    37  32  81 W5        30.22R
ROCHESTER*     CLOUDY    41  34  75 W9        30.20R
WARSAW*        CLOUDY    36  32  87 W8        30.19R
ANGOLA*        CLOUDY    37  28  70 NW12      30.15R
FORT WAYNE     CLOUDY    39  30  70 W13       30.18R
HUNTINGTON*    CLOUDY    38  31  75 W7        30.19R
PERU/GRISSOM   CLOUDY    38  34  87 W9        30.19R
MARION*        CLOUDY    36  33  91 W10       30.21R

$$
INZ028>050-022200-
CENTRAL INDIANA

CITY           SKY/WX    TMP DP  RH WIND       PRES   REMARKS
LAFAYETTE      CLOUDY    39  33  79 W8        30.23R
KOKOMO*        CLOUDY    37  33  85 W9        30.22R
MUNCIE*        CLOUDY    40  30  67 W10       30.20R
INDIANAPOLIS   CLOUDY    40  32  73 W9        30.24R

$$
MIZ043>046-050>051-056>058-064>065-071>073-077>080-022200-
SOUTHWEST LOWER MICHIGAN

CITY           SKY/WX    TMP DP  RH WIND       PRES   REMARKS
BATTLE CREEK   CLOUDY    37  30  75 NW10      30.16R
BENTON HARBOR  CLOUDY    38  25  59 W12       30.20R
COLDWATER*     CLOUDY    37  26  62 W16       30.16R
HILLSDALE*     CLOUDY    36  28  75 NW15G22   30.13R
HOLLAND        CLOUDY    38  28  67 NW9       30.18R
GRAND RAPIDS   CLOUDY    36  24  62 W13       30.17R
KALAMAZOO      CLOUDY    37  27  67 W9        30.17R
STURGIS*       CLOUDY    37  27  67 NW7       30.17R
THREE RIVERS*  CLOUDY    38  30  73 W10       30.18R

$$
OHZ001>008-015>018-024>025-022200-
NORTHWEST OHIO

CITY           SKY/WX    TMP DP  RH WIND       PRES   REMARKS
WAUSEON*       CLOUDY    39  28  65 NW18G25   30.14R
DEFIANCE       CLOUDY    40  32  73 W6        30.16R
FINDLAY        CLOUDY    40  31  70 W14       30.14R
TOLEDO EXPRESS CLOUDY    39  30  70 W14G23    30.14R
TOLEDO METCALF CLOUDY    40  33  76 W12       30.14R
LIMA           CLOUDY    39  32  76 W13       30.16R

$$
AND FOR LAKE MICHIGAN COASTAL AND OPEN LAKE BUOY OBSERVATIONS

STATION/POSITION TEMP    WIND        PRES    VSBY  WAVE
                 AIR SEA DIR/SP/G                  HT/PER
                 (F)     (DEG/KT/KT) (MB)    (MI)  (FT/S)
CALUMET HARBOR    40     310/  7/  9 1022.3R
MICHIGAN CITY     39     300/ 13/ 17   N/A
BURNS HARBOR      40     320/ 10/ 13 1023.0R
SAINT JOSEPH      40     320/ 12/ 16 1022.7
SOUTH LAKE BUOY   37 49  310/ 10/ 14 1022.9R         3/ 5

$$
&&




USA.gov is the U.S. government's official web portal to all federal, state and local government web resources and services.